Theta_e
317 317 317 317 317 317 317 318 318 319 319 320 320 321 321 321 322 322 322 322 322 322 322 321 322 322 322 321 320 319 319 324 325 324 323 325 332 342 354 353 345 357 366 352 346 341 337 337 336 341 339 337 334 334 340 339 341 337 327 323 318 319 317 320 319 321 323 321 327 329 331 330 328 331 336 338 333 332 331 333 334 339 336 342 346 347 348 351
317 317 317 317 316 317 317 317 318 318 319 319 320 320 320 321 321 321 321 321 321 321 321 321 321 321 321 320 319 319 320 324 323 323 323 333 349 350 350 356 347 359 363 341 338 333 331 332 334 335 336 328 338 328 338 331 338 330 327 323 317 321 321 323 323 325 323 322 328 330 332 330 329 331 334 329 329 330 329 332 334 334 338 345 345 346 347 350
317 316 316 316 316 316 317 317 318 318 318 319 319 320 320 320 321 321 321 320 320 320 320 320 320 321 321 320 319 318 322 323 323 322 328 346 355 360 353 356 349 363 349 335 334 330 330 331 335 330 332 324 331 323 328 332 333 331 328 320 321 322 324 325 325 325 326 327 327 329 331 331 332 332 333 328 329 331 328 330 331 332 336 340 344 346 347 348
316 316 316 316 316 316 317 317 317 318 318 319 319 319 320 320 320 320 320 320 320 320 320 319 320 321 320 319 319 321 324 324 317 318 333 355 357 359 355 353 355 363 338 330 332 329 329 331 333 329 327 320 324 324 325 330 327 330 327 321 321 325 323 325 326 326 327 328 329 329 332 330 332 334 331 331 327 328 329 333 331 332 337 340 343 345 345 345
315 315 315 315 315 316 316 317 317 317 318 318 318 319 319 319 319 319 319 319 319 319 319 320 320 320 320 320 317 324 324 314 313 321 333 354 359 357 354 354 359 350 335 328 328 327 326 326 331 327 325 320 319 320 320 327 330 330 326 326 326 326 323 325 326 327 327 330 330 330 328 329 335 335 330 332 325 324 328 333 334 336 339 340 341 344 345 343
315 315 315 315 315 315 316 316 316 317 317 318 318 318 319 319 318 318 318 318 318 319 319 320 320 320 320 319 320 325 320 302 316 320 357 353 357 359 354 355 360 338 329 326 324 323 322 324 327 322 322 320 316 315 318 322 331 323 326 326 327 327 325 325 326 327 328 328 328 330 330 335 331 331 332 331 328 330 332 335 335 339 340 342 343 343 343 343
314 314 315 315 315 315 315 315 316 316 316 317 318 318 318 318 317 317 317 317 317 318 319 320 320 320 320 319 322 321 317 315 320 332 356 357 354 361 358 353 357 334 329 323 321 321 320 321 323 319 320 317 316 316 318 321 328 326 322 325 326 327 325 326 325 327 328 329 328 332 333 333 331 326 332 329 330 334 333 338 338 341 343 342 342 342 342 342
314 314 314 314 314 315 315 315 315 315 316 316 317 317 317 317 317 317 317 317 317 318 319 319 320 320 318 322 326 320 315 315 321 329 359 356 351 357 356 339 336 332 326 321 319 319 319 319 319 320 318 314 316 316 319 319 325 323 322 324 325 325 326 325 326 327 329 330 332 332 330 332 331 329 331 329 332 336 334 339 343 342 341 341 342 342 343 344
314 314 314 314 314 314 314 315 315 316 316 316 316 316 316 316 316 316 316 317 317 318 319 319 319 320 320 323 320 314 313 320 325 329 341 339 337 347 349 340 339 330 324 322 322 320 318 317 320 320 315 315 319 316 319 318 318 324 324 325 324 323 323 322 325 327 329 330 332 330 330 332 332 335 329 331 334 338 339 341 342 344 341 340 341 342 344 344
313 313 313 313 314 314 314 314 315 315 315 316 316 315 315 315 315 316 316 316 317 318 319 320 320 320 319 324 320 311 319 324 324 331 335 334 331 329 327 328 337 332 324 322 321 320 317 318 319 321 320 317 318 316 318 317 319 325 324 324 321 321 322 324 324 327 329 329 332 329 328 330 334 332 325 332 336 340 339 341 342 342 342 340 342 343 344 344
313 313 313 313 314 314 314 314 315 315 315 315 315 315 315 314 315 315 316 316 317 319 320 320 321 319 320 324 315 311 325 325 327 335 334 334 328 323 324 328 334 330 327 324 322 322 320 319 321 321 318 316 317 316 316 319 322 321 320 320 321 322 322 325 326 327 331 330 333 329 328 334 336 332 328 332 339 340 339 339 341 341 342 341 343 342 345 345
313 313 313 313 313 313 314 314 314 315 314 314 314 314 314 314 314 315 315 317 319 320 321 321 321 322 325 321 317 316 326 325 330 333 334 329 324 325 326 326 328 329 327 322 323 323 322 321 321 319 312 317 313 318 317 321 320 320 321 318 321 322 321 325 324 329 331 330 332 331 331 328 329 326 330 337 340 339 340 339 340 340 341 342 343 343 346 346
313 313 313 313 313 313 314 314 314 314 314 313 313 313 313 314 314 314 316 318 320 320 320 321 322 325 324 316 320 326 329 329 328 328 327 327 327 328 327 327 328 329 328 324 323 324 323 322 321 317 318 318 316 314 320 321 320 320 321 320 319 319 319 324 328 329 328 332 333 333 315 319 326 329 333 340 340 338 338 339 338 340 342 341 343 343 346 347
312 312 313 313 313 313 314 314 314 313 313 313 313 312 313 313 315 315 318 319 320 319 320 322 324 324 324 315 320 327 328 330 329 326 326 328 326 325 326 327 328 329 327 325 324 324 323 324 321 318 320 316 315 323 318 320 320 316 319 322 317 314 314 324 326 328 325 332 334 330 315 318 322 328 337 341 339 337 336 338 338 339 341 343 344 344 346 348
312 312 312 313 313 313 313 313 313 312 313 313 312 312 313 313 315 318 321 321 319 321 321 323 325 324 319 320 326 332 341 335 327 326 328 326 325 323 323 326 326 326 325 324 323 324 324 322 320 317 316 320 319 316 315 318 320 319 316 313 317 314 318 324 328 327 322 330 333 327 317 318 322 328 337 340 339 338 336 337 338 339 341 343 344 344 345 346
311 311 312 312 312 312 313 312 312 312 312 312 312 312 314 314 318 321 322 323 321 322 324 323 324 323 318 312 320 335 330 325 324 328 329 327 325 322 323 323 326 325 324 323 324 322 321 321 316 317 315 317 314 314 314 314 316 319 316 313 313 315 316 320 325 328 328 329 330 326 319 320 322 330 337 339 338 337 336 336 339 339 341 343 345 344 345 346
311 311 311 312 312 312 312 312 312 312 311 311 311 313 314 315 319 322 323 323 322 324 325 324 324 325 310 321 325 319 319 323 328 326 328 328 324 324 323 322 321 322 322 322 322 321 319 316 318 318 317 314 314 313 310 309 311 314 317 313 316 313 315 313 325 328 328 328 324 327 322 321 329 333 335 338 338 337 335 336 338 340 341 343 345 344 343 345
311 311 311 311 312 312 312 312 311 311 311 310 310 312 313 316 320 323 323 325 326 326 326 329 327 323 319 323 313 316 322 323 323 323 324 325 325 324 322 319 321 321 320 318 319 315 317 313 316 311 312 312 313 311 308 306 309 311 313 313 313 315 315 314 318 324 326 327 324 325 323 322 329 332 334 336 338 337 335 336 339 340 341 343 344 343 344 346
310 310 311 311 312 312 312 311 311 311 311 310 312 313 316 317 321 325 325 324 324 322 318 317 320 306 304 315 320 320 319 323 324 321 318 320 324 325 323 323 321 318 314 313 312 313 315 312 312 310 307 308 309 310 311 313 315 314 316 314 314 312 313 314 319 325 327 325 322 322 322 322 327 330 333 338 338 337 337 338 339 340 342 344 344 343 343 345
311 310 310 311 311 312 311 311 311 310 310 310 314 315 321 323 317 319 322 323 316 312 311 310 321 315 314 314 314 318 320 321 315 317 319 322 323 322 320 319 318 318 314 307 310 311 314 307 306 305 308 310 311 313 314 316 317 317 317 316 315 314 315 317 319 324 328 324 321 320 322 323 326 330 336 338 338 337 337 336 338 339 340 342 343 344 344 345
310 310 311 311 311 312 311 311 311 310 309 312 312 310 305 307 303 304 306 308 314 316 313 312 311 311 312 315 315 315 311 314 318 317 319 325 322 320 316 317 315 310 313 312 310 312 312 305 306 309 310 311 312 313 315 315 317 316 316 315 315 316 314 317 319 326 327 322 320 323 322 323 326 329 334 339 338 335 335 336 338 339 341 342 345 345 345 346
310 310 311 311 311 311 311 310 310 310 309 311 313 304 305 307 308 309 308 304 309 311 311 311 312 310 314 314 316 316 314 310 312 316 321 323 319 315 316 314 312 309 313 312 311 309 305 304 308 310 312 313 313 313 313 313 314 315 315 315 314 315 317 319 321 326 327 324 320 324 322 323 326 328 331 335 337 338 337 338 338 340 341 342 344 345 346 346
310 311 311 311 310 311 310 310 309 308 313 310 307 305 307 309 311 312 308 305 304 311 309 310 309 310 311 315 316 317 310 309 309 314 317 320 318 315 316 312 311 311 312 311 306 305 302 304 309 312 312 310 311 311 311 312 314 314 314 312 311 315 314 312 320 324 326 322 320 322 321 323 326 328 329 334 336 338 340 339 339 341 342 342 344 346 346 345
310 311 311 311 310 310 310 309 308 312 312 309 307 307 311 313 311 310 305 303 304 309 311 312 312 312 311 311 317 315 311 312 313 312 321 318 315 317 316 313 311 311 310 310 308 307 306 308 311 311 311 310 309 310 310 311 310 313 313 313 313 314 316 315 317 322 325 326 325 323 321 320 322 322 327 333 336 336 338 339 341 343 344 346 347 346 347 346
310 311 311 310 309 309 308 307 312 309 310 311 307 309 311 313 312 311 305 305 308 308 314 313 314 313 315 322 320 314 315 315 315 317 320 318 317 316 314 318 314 310 310 311 309 307 307 311 312 309 309 310 309 308 309 309 309 312 314 314 315 316 316 316 318 318 319 319 323 319 309 310 318 320 322 330 331 334 336 338 340 343 344 345 345 345 347 347
310 311 311 310 310 309 308 309 314 310 308 305 308 311 312 311 311 312 308 304 300 306 310 307 315 311 321 314 317 316 317 311 318 318 320 320 324 317 315 314 315 309 310 311 309 309 308 312 310 308 308 308 307 307 310 310 308 310 312 316 316 316 315 316 316 316 311 309 317 322 311 307 315 316 319 325 328 331 336 337 339 342 344 345 344 344 344 345
311 311 310 310 309 308 305 304 311 309 307 305 312 312 311 311 317 311 305 302 299 308 307 313 313 314 318 317 317 317 306 310 318 320 319 322 316 321 312 311 314 314 315 314 310 305 309 310 309 309 308 307 306 306 309 310 309 308 316 317 316 315 314 315 316 315 313 317 318 318 317 309 308 314 320 324 324 330 334 337 338 339 343 342 344 342 344 345
311 310 310 309 309 308 307 308 309 306 304 311 311 310 312 314 315 312 304 293 294 310 307 310 314 319 317 318 319 313 314 314 310 315 319 319 319 316 313 311 311 310 313 313 302 310 309 307 308 307 307 307 306 308 311 312 309 311 316 318 315 316 316 315 315 314 315 313 308 314 317 309 309 316 324 325 323 327 331 333 337 338 340 343 343 342 343 344
310 310 310 309 308 308 311 309 309 306 310 311 311 311 311 315 310 305 301 293 307 307 316 309 318 316 316 317 315 315 314 315 309 315 319 320 320 317 310 312 314 312 314 313 307 309 310 310 309 309 307 306 309 310 311 311 309 313 316 317 317 317 316 316 314 314 314 311 306 311 314 307 307 314 317 325 323 324 328 331 333 338 340 341 341 342 343 345
310 310 310 309 308 311 312 312 309 311 312 313 311 313 313 312 308 297 295 289 308 302 309 310 310 309 315 310 311 314 311 313 314 316 317 314 315 319 317 318 314 313 311 313 310 311 311 316 316 310 308 310 311 312 312 312 313 316 316 315 315 315 315 315 315 314 311 305 308 313 314 312 305 312 314 317 321 323 321 323 330 336 340 341 342 343 342 343
310 309 309 308 306 309 309 305 311 314 314 314 314 313 312 309 300 296 290 299 305 307 311 309 307 312 310 308 307 312 311 312 313 314 312 314 312 314 314 312 316 313 311 311 309 310 311 311 310 311 313 312 313 310 313 314 314 314 312 311 312 311 314 313 311 314 305 303 311 314 313 314 304 309 315 320 325 323 321 320 322 327 336 341 343 342 343 344
308 308 309 308 309 311 305 303 311 312 313 315 310 306 305 296 300 292 293 306 297 305 305 307 309 309 308 309 307 309 310 310 313 312 311 310 309 308 309 306 308 304 303 305 305 309 308 309 311 311 315 311 309 309 310 311 313 312 311 310 306 304 306 302 306 302 302 302 310 313 313 310 309 314 317 319 321 322 323 323 323 323 331 340 343 343 344 344
307 307 306 309 311 310 311 311 313 314 313 309 306 305 297 294 290 297 299 302 300 308 305 310 308 308 308 307 307 308 309 305 312 311 312 311 309 309 311 310 311 308 301 306 305 305 305 310 310 310 311 313 310 305 306 305 308 309 307 307 305 301 301 297 301 305 305 309 312 312 315 308 314 318 321 319 322 324 323 325 324 324 326 332 343 345 344 345
306 306 308 312 312 313 313 316 314 314 310 309 305 299 296 291 291 303 300 302 302 307 309 307 308 308 307 305 307 308 305 309 309 310 311 309 309 306 308 310 311 309 308 307 303 305 300 300 306 308 306 312 310 309 309 309 308 308 311 310 307 306 302 299 301 299 302 304 308 312 310 307 308 311 321 322 324 325 324 324 327 328 332 334 341 346 346 346
305 308 313 314 314 314 314 315 317 314 311 309 301 296 290 290 297 298 300 303 305 306 305 309 305 305 305 306 308 308 308 305 310 309 309 308 306 307 306 308 310 311 309 304 306 306 303 303 309 312 311 312 308 311 312 311 310 311 311 312 308 307 312 304 307 305 305 305 305 309 308 313 312 320 325 326 324 325 324 325 326 328 336 338 335 341 343 344
306 310 312 311 311 315 315 314 315 313 311 306 296 291 290 295 296 301 301 306 306 302 304 305 305 302 302 304 307 306 309 304 309 309 308 308 309 307 310 309 309 311 309 303 308 303 305 302 309 310 312 311 310 312 310 313 303 309 309 305 309 315 313 308 309 310 310 307 303 312 311 313 317 318 321 323 323 323 324 324 324 327 331 338 336 338 341 343
308 310 307 307 311 316 317 316 315 312 310 305 295 290 296 297 302 303 306 304 304 305 303 299 301 301 300 300 303 304 306 307 307 307 305 309 306 309 309 310 312 312 313 311 306 310 303 303 309 308 307 311 313 313 312 312 314 312 305 309 315 317 315 310 303 306 304 301 303 308 308 309 309 306 319 318 317 318 320 322 322 324 330 334 336 338 341 342
307 308 309 308 314 318 318 318 314 312 309 303 295 297 300 296 302 303 307 307 305 305 303 301 302 304 301 302 302 304 307 304 305 306 305 308 304 313 310 310 313 313 313 315 308 308 308 301 306 308 308 310 313 312 310 312 314 311 311 317 309 304 304 309 307 299 299 299 301 306 309 310 310 310 314 315 316 317 320 322 321 321 326 333 335 338 342 343
308 307 304 313 316 317 317 317 314 311 304 298 294 295 299 300 303 302 304 305 305 303 302 302 301 304 304 303 304 306 307 301 306 305 302 307 304 310 310 312 311 313 314 314 308 310 309 301 303 309 308 310 310 309 302 306 311 313 315 313 315 312 307 306 306 308 307 300 300 301 306 305 313 313 315 316 319 319 319 320 320 321 325 334 336 337 340 342
301 300 299 313 316 316 318 315 310 308 303 295 296 296 302 299 301 303 304 303 301 301 300 300 303 301 304 303 305 304 306 305 305 306 304 308 305 311 310 313 312 313 314 314 311 313 308 310 299 306 310 309 302 306 304 307 305 306 307 308 310 309 315 313 311 307 304 302 301 301 300 306 314 317 316 318 319 321 320 320 322 323 323 325 337 338 340 343
305 302 301 314 315 317 313 309 303 300 299 301 301 299 300 299 301 302 303 304 302 305 302 301 301 300 302 302 302 305 305 305 305 304 305 306 307 304 311 312 313 312 314 313 311 312 308 307 301 305 303 303 305 309 308 308 309 308 307 306 308 308 306 302 302 312 309 304 299 300 299 310 316 319 319 318 320 320 321 322 321 322 323 327 327 340 342 343
302 295 302 309 315 311 306 297 298 301 299 298 298 301 299 305 301 301 302 303 302 301 304 301 302 301 302 302 304 304 303 303 304 304 305 304 307 308 312 313 313 314 312 309 309 313 313 310 305 302 304 304 306 310 311 311 310 310 310 308 310 310 310 305 297 304 308 308 309 307 303 307 318 321 321 321 321 320 321 321 321 322 325 325 329 337 343 347
299 296 305 307 310 309 305 298 298 297 298 299 303 302 304 302 301 303 301 302 300 302 301 300 300 300 301 302 302 302 303 302 303 302 304 305 307 310 313 312 313 313 313 312 312 314 321 308 303 303 309 310 310 311 311 311 309 307 309 311 310 307 309 308 308 309 306 307 305 305 303 307 318 324 323 321 324 322 324 323 323 322 324 326 329 341 345 348
298 297 301 310 312 310 302 294 295 296 296 300 300 299 303 302 301 300 300 302 300 300 299 299 301 302 301 304 303 301 304 298 302 302 302 305 304 310 311 312 313 311 311 311 309 313 306 309 306 301 301 303 306 309 307 310 309 306 305 308 310 311 310 310 311 312 305 306 307 304 299 305 317 323 325 326 323 320 320 322 324 327 332 332 339 347 345 349
298 301 303 305 311 308 298 300 298 299 300 300 300 299 301 301 302 302 302 302 304 302 301 300 301 302 301 303 302 302 303 301 300 304 303 304 303 309 311 312 313 312 313 316 324 316 308 308 305 299 296 294 294 295 298 301 304 307 308 307 308 308 309 308 304 307 300 308 310 304 304 310 316 320 319 319 319 320 323 323 324 326 331 333 334 349 351 349
295 290 297 300 308 307 304 305 302 300 299 299 298 300 300 297 301 304 303 301 303 304 304 303 304 304 302 301 300 300 300 303 301 301 306 305 307 309 312 312 313 313 317 319 320 314 308 310 309 306 303 301 303 307 310 310 308 303 305 306 306 308 309 309 309 305 301 306 307 307 310 311 312 315 317 318 319 318 318 321 321 322 334 340 350 351 349 349
298 294 294 294 300 301 300 302 301 301 297 300 295 299 297 299 301 301 305 300 303 302 303 304 303 301 301 301 300 299 301 301 304 303 303 304 307 309 314 314 312 314 316 315 317 315 311 306 308 309 308 308 308 308 309 310 306 307 305 304 306 306 307 306 304 303 311 306 300 307 315 310 311 315 316 318 318 320 320 321 321 322 323 329 343 352 350 347
290 295 300 300 294 290 293 295 299 297 297 299 296 300 297 297 298 298 302 304 304 304 300 302 303 304 304 302 302 299 301 301 302 300 303 304 304 307 307 309 309 315 314 312 317 315 310 306 309 309 308 308 309 309 309 308 308 308 307 306 305 306 306 305 306 307 309 304 302 311 316 311 312 314 316 319 320 321 319 320 321 322 322 326 342 349 345 344
297 296 296 299 292 294 294 295 295 295 293 294 295 297 295 296 296 299 300 302 302 302 302 298 299 302 302 304 303 301 303 299 300 304 304 304 303 304 303 305 308 311 311 311 315 319 314 309 311 310 308 308 308 308 309 308 308 307 307 308 307 307 306 307 306 307 307 308 309 310 315 312 314 315 317 319 321 320 321 323 323 323 321 330 341 348 343 344
293 294 292 297 294 291 292 293 293 293 291 296 292 295 296 296 295 298 302 301 299 301 305 300 300 301 302 302 303 301 304 305 305 304 307 305 305 306 304 304 306 309 310 308 312 319 314 308 312 310 308 307 309 310 310 309 307 306 307 307 307 307 307 307 307 307 309 308 308 308 309 311 317 319 319 321 322 321 321 318 320 325 323 322 331 342 343 343
298 299 297 291 288 291 292 292 292 293 292 294 292 293 293 293 293 297 297 302 300 300 302 300 302 303 305 306 304 302 306 308 309 308 310 310 307 310 307 308 309 307 310 310 313 315 314 309 312 310 305 305 309 308 308 309 308 306 306 307 307 306 305 306 306 308 308 307 308 307 306 307 313 319 319 320 321 320 319 319 322 322 322 325 338 343 344 347
300 301 300 296 288 294 292 294 293 291 287 292 293 294 295 295 297 297 294 299 301 303 303 302 302 303 303 304 304 306 308 310 310 311 313 313 313 312 313 313 313 311 310 310 315 313 313 309 307 308 303 304 308 308 307 307 306 303 303 306 307 308 308 309 309 310 310 310 307 304 305 311 315 318 316 317 317 318 318 320 321 323 340 345 343 344 345 348
Wind_Speed
21 21 21 21 21 22 22 22 21 21 21 22 21 21 21 21 20 21 21 19 20 19 20 20 20 20 18 18 17 16 17 11 8 8 8 5 3 4 4 6 14 13 11 12 10 11 11 10 9 8 8 7 6 7 6 8 4 5 6 3 0 1 3 3 5 2 4 6 9 13 12 9 11 11 7 8 8 10 12 7 10 6 1 7 8 17 17 17
21 21 21 21 21 21 22 22 22 22 22 22 22 21 21 22 22 22 21 21 20 20 20 20 19 18 18 17 15 15 15 9 11 11 14 7 7 4 7 6 12 14 14 12 13 11 10 10 9 9 7 7 5 4 8 6 7 5 5 0 2 2 2 1 6 6 3 8 9 11 12 8 10 11 10 10 10 12 12 9 10 8 8 10 14 17 18 18
22 21 21 21 22 22 22 22 22 22 22 22 22 22 22 22 22 22 22 22 21 21 20 19 18 17 17 15 14 15 11 11 10 11 7 5 5 7 7 8 12 14 16 12 11 10 8 8 8 9 6 7 7 6 7 5 8 7 7 2 3 1 1 2 4 7 4 6 10 12 12 8 12 10 11 10 11 12 12 11 12 11 13 14 17 18 18 18
22 22 21 21 22 22 22 22 22 22 23 23 23 23 23 22 22 22 22 22 21 21 19 19 18 16 15 14 13 11 8 10 9 8 7 5 2 5 8 10 14 14 13 10 8 10 8 7 9 9 7 9 6 7 6 6 6 5 6 5 2 2 3 3 6 6 8 7 10 11 12 10 12 10 11 9 10 11 10 12 15 16 15 17 19 19 19 19
23 23 22 22 22 23 22 23 23 23 24 24 24 23 23 23 22 22 22 22 21 20 19 18 17 15 14 12 11 8 10 11 5 6 9 6 4 5 10 12 13 14 11 7 7 9 10 11 10 10 8 8 9 8 10 8 8 3 7 5 4 2 6 3 5 7 8 8 10 12 14 11 11 10 11 11 9 8 10 12 13 13 17 19 20 19 19 20
23 23 23 23 23 23 23 23 24 24 24 24 24 24 24 23 22 22 22 21 21 20 18 17 16 13 13 10 10 7 5 7 3 2 10 6 4 6 10 12 13 13 11 10 9 9 10 11 11 10 9 10 11 11 8 10 9 7 5 9 7 4 6 2 5 8 9 10 11 13 12 11 13 10 10 11 7 6 4 13 14 14 17 19 19 19 19 19
23 23 23 23 24 24 25 25 25 24 24 24 24 24 23 23 22 22 22 22 21 19 17 15 13 12 10 9 7 5 9 12 13 4 9 6 3 5 7 11 11 11 11 10 11 11 13 13 14 12 11 11 12 12 10 8 10 8 6 8 7 5 9 4 5 7 10 12 11 10 12 13 13 11 10 11 5 2 3 12 13 15 17 19 19 20 20 19
23 23 23 23 24 25 25 25 25 26 24 24 24 24 23 23 22 22 23 22 20 19 16 14 11 8 7 7 5 7 9 10 8 7 7 7 4 5 8 10 11 11 12 13 13 14 13 15 16 12 11 11 9 12 9 8 10 10 10 6 7 6 7 6 5 8 10 10 9 12 13 13 13 8 11 10 7 3 8 12 13 15 17 19 19 20 20 19
23 23 24 24 24 25 26 25 26 27 24 25 25 24 24 23 23 23 23 22 21 18 15 10 7 6 4 5 6 12 10 4 2 5 6 7 4 7 7 8 10 11 12 12 13 13 13 14 15 14 11 15 11 11 10 9 9 12 11 9 7 7 5 5 6 8 11 8 10 13 12 13 11 7 10 11 9 6 12 14 15 16 17 18 19 20 19 18
24 24 24 25 25 25 26 26 26 26 27 26 26 25 25 24 23 23 23 22 21 17 12 9 8 8 6 5 7 11 2 3 4 5 6 5 5 4 4 2 10 10 11 13 12 15 17 12 17 16 10 8 10 11 10 11 4 5 11 10 7 5 5 4 8 10 11 9 13 13 13 13 10 9 7 10 11 10 13 15 16 16 17 18 17 18 18 19
24 25 24 25 25 25 26 26 26 27 27 27 27 26 26 26 25 24 22 21 18 13 8 5 6 9 7 6 8 12 5 4 3 4 6 7 5 6 6 2 6 9 12 11 14 16 16 14 13 8 9 9 8 12 12 9 9 5 3 4 7 5 5 5 9 11 10 11 14 12 11 10 11 10 6 12 13 12 14 16 16 16 16 16 18 18 17 16
24 24 24 25 26 26 26 27 28 27 27 28 28 27 27 26 26 24 22 17 13 9 7 8 9 6 6 8 11 13 4 5 2 4 6 7 8 8 7 5 7 9 10 12 14 14 15 15 12 12 9 7 11 7 13 12 8 9 7 11 5 5 4 8 10 12 12 9 13 11 10 11 12 13 7 14 14 14 13 15 16 15 15 16 17 17 16 16
25 25 25 26 26 26 26 26 28 29 28 29 29 27 27 27 25 23 17 12 6 5 5 8 9 5 5 9 13 12 11 6 5 5 8 8 10 9 8 7 8 8 9 10 10 12 14 14 12 15 15 6 9 8 3 10 10 9 9 10 6 7 6 10 9 12 12 9 13 12 7 8 13 12 11 14 14 15 14 14 15 14 14 15 16 16 16 16
25 26 26 26 27 26 26 26 27 28 28 29 29 28 27 26 24 19 12 7 4 2 6 11 6 5 6 9 3 2 2 5 6 10 12 10 11 9 8 7 7 7 5 7 6 8 11 9 11 13 12 13 10 3 9 7 9 11 11 8 9 7 7 13 11 13 12 11 14 12 7 5 10 14 13 14 16 15 14 14 14 14 14 15 16 16 16 17
26 27 27 27 27 28 27 26 27 28 30 30 30 28 27 25 20 12 7 5 3 5 9 9 6 4 7 9 6 2 4 3 8 9 5 5 6 6 9 8 8 8 6 6 6 6 7 11 10 11 11 11 11 6 11 9 9 11 8 11 10 11 8 12 11 14 11 10 13 12 8 4 6 14 15 15 15 15 14 14 15 14 14 15 15 16 16 15
25 26 27 27 28 28 28 27 28 28 28 30 28 28 25 19 12 3 4 4 7 10 7 7 5 7 8 11 2 7 5 7 7 7 6 3 4 5 9 9 8 8 8 6 3 4 8 10 12 11 11 13 14 10 11 10 10 10 11 10 11 10 7 9 12 13 11 12 13 13 5 6 7 11 14 14 16 15 13 14 15 15 16 15 15 14 15 15
23 25 26 27 28 28 29 28 29 29 27 29 30 26 19 13 12 3 5 10 7 5 5 3 3 5 8 4 1 7 7 7 6 6 6 4 4 2 8 9 8 9 8 6 6 6 8 11 9 9 12 10 13 12 12 13 11 11 11 10 9 12 11 9 12 13 13 12 13 16 10 3 7 8 11 13 15 16 14 14 15 14 14 15 14 14 15 15
25 23 26 26 28 28 28 26 30 29 26 30 26 23 13 10 5 10 8 7 3 4 4 4 5 5 11 7 8 6 6 7 8 2 4 4 5 5 9 10 8 10 8 9 7 11 9 11 11 12 11 13 14 15 15 15 14 13 12 12 10 8 10 10 11 13 14 15 12 14 13 11 8 7 8 13 13 15 15 14 14 15 15 15 14 15 16 15
26 25 24 26 27 27 27 26 29 27 25 31 28 16 6 6 6 6 6 6 5 4 5 7 7 5 6 8 6 5 5 5 4 7 11 10 7 8 9 6 9 12 9 9 10 14 10 10 11 12 16 16 17 18 16 15 15 14 14 12 12 11 12 11 9 12 16 15 12 11 11 13 12 12 14 13 13 14 14 13 12 14 14 15 15 15 15 15
25 25 26 25 26 25 27 27 28 25 24 20 12 2 4 5 5 5 6 9 10 12 15 7 12 13 18 15 13 10 8 7 11 10 9 8 7 11 12 10 11 11 10 10 12 15 10 14 15 16 15 17 19 18 18 18 15 14 13 13 13 12 10 13 11 9 15 12 12 13 13 11 11 10 9 11 12 12 13 14 13 13 13 14 14 15 15 16
24 25 24 23 24 25 25 26 26 24 22 12 12 8 4 7 8 5 8 12 17 17 16 16 15 17 15 8 3 3 4 7 10 8 9 8 12 12 12 13 12 12 12 13 10 11 11 15 16 17 18 17 18 18 19 19 19 14 14 14 11 12 12 12 9 10 13 13 10 11 12 13 11 8 8 10 13 14 14 14 15 14 14 14 15 16 16 15
24 24 24 24 23 26 24 24 24 23 20 9 7 6 2 7 6 5 5 10 11 13 16 19 14 18 16 16 14 10 8 9 10 11 8 12 14 13 14 15 15 14 13 13 11 11 14 17 16 17 17 15 16 18 19 20 19 15 14 12 13 12 12 7 10 8 7 10 8 9 11 11 11 12 10 12 13 12 14 15 15 16 16 14 15 16 16 16
24 23 24 23 25 26 25 24 24 21 8 4 5 3 3 4 5 3 6 9 14 10 15 15 15 18 16 11 10 9 12 14 11 11 13 14 15 16 14 14 15 14 14 17 14 12 13 15 18 17 15 18 16 16 19 19 18 15 14 14 13 11 13 10 10 9 12 12 9 10 10 8 10 11 13 13 14 12 13 15 15 15 16 17 17 16 15 17
24 25 22 23 25 26 27 25 25 13 5 8 4 1 5 3 5 8 6 7 12 10 13 12 12 12 11 7 7 13 14 9 9 9 14 15 15 15 13 17 16 15 15 18 19 15 13 9 17 16 18 16 15 15 16 16 15 17 17 14 14 13 13 11 11 12 13 13 7 6 8 8 9 11 10 10 14 13 13 14 14 15 15 16 15 16 17 17
25 24 25 24 22 24 29 25 8 4 10 8 3 0 1 4 5 7 7 7 8 9 7 8 7 7 5 6 9 11 9 6 8 4 13 18 17 13 14 11 12 15 16 18 18 17 16 9 8 20 17 16 18 15 16 14 15 15 19 18 15 15 12 13 13 12 8 9 10 9 8 10 12 14 14 8 9 14 14 14 15 15 15 15 17 18 17 17
26 24 24 22 22 23 30 10 2 9 11 3 4 4 1 4 5 6 6 5 8 2 7 6 7 5 6 7 8 8 4 6 8 9 11 16 15 13 9 11 10 14 18 17 15 11 13 12 11 15 17 17 18 16 16 17 15 15 15 19 18 17 12 14 17 13 13 12 10 10 10 10 10 15 13 12 15 15 13 17 16 16 16 17 16 17 18 18
25 25 25 21 20 18 11 4 9 13 7 4 4 1 3 5 4 6 5 5 9 3 4 6 6 6 6 9 10 7 8 7 5 9 13 14 17 12 13 12 11 9 10 9 8 12 13 16 13 15 18 19 17 16 16 17 15 15 14 17 19 20 15 13 12 14 12 11 10 14 11 10 11 11 10 12 14 14 17 17 18 17 18 19 18 18 19 18
25 25 21 19 18 12 7 9 11 9 4 4 1 3 6 4 4 4 4 6 3 4 4 6 2 3 5 8 11 9 6 2 7 9 11 13 16 15 14 14 13 14 12 12 15 8 18 17 17 16 15 15 17 16 15 17 16 14 14 13 15 18 17 14 12 13 14 12 13 11 13 12 12 9 6 12 15 17 17 17 18 18 19 19 20 20 20 20
24 25 22 20 21 21 12 8 6 8 3 3 5 8 4 5 5 5 5 7 4 3 4 3 2 6 5 7 11 11 6 4 6 8 10 9 16 10 13 15 13 14 12 15 12 9 10 17 17 15 14 15 14 17 17 17 15 18 3 8 11 14 16 15 12 13 13 15 16 15 16 13 12 12 12 12 13 14 14 16 18 19 20 19 19 20 20 19
25 26 24 19 16 7 6 8 11 10 7 6 7 6 6 6 6 6 6 9 3 4 7 5 6 9 9 9 7 10 10 5 3 8 12 11 16 12 9 11 13 14 14 15 17 11 7 12 15 14 16 13 13 14 17 18 17 11 9 9 8 10 12 12 11 10 12 17 14 16 17 13 12 12 13 12 13 11 11 13 13 16 19 20 21 22 20 19
25 25 23 16 9 6 5 7 11 10 6 5 7 9 6 5 7 7 12 2 1 5 5 9 8 7 10 10 7 10 8 7 10 9 11 10 14 14 9 9 10 11 11 13 15 18 9 10 13 12 14 12 11 13 13 13 15 15 9 12 9 10 8 8 9 9 13 13 11 17 19 16 14 11 12 11 12 15 16 14 13 12 15 19 19 19 21 21
24 25 25 15 11 8 8 3 7 4 1 5 9 7 6 9 8 13 8 9 7 9 10 10 9 10 9 6 7 7 7 9 8 11 11 12 13 15 14 12 13 13 14 14 13 14 16 13 11 14 14 20 16 13 13 14 15 16 13 13 14 9 9 12 11 13 13 14 12 17 21 17 18 13 12 8 11 15 15 12 13 15 18 19 19 20 19 19
25 25 29 17 11 10 15 12 4 4 5 7 7 6 9 9 13 12 10 8 2 4 6 1 10 11 9 7 10 9 5 9 10 11 14 14 13 16 18 17 16 14 11 13 12 13 13 14 15 13 13 17 17 16 13 15 17 18 17 15 14 15 14 13 13 9 11 13 17 13 15 16 11 12 17 19 12 13 14 14 15 14 12 13 17 18 17 18
26 27 16 8 7 8 6 7 8 8 8 5 7 8 10 13 15 5 15 12 5 4 7 8 6 9 10 10 8 5 7 10 8 10 14 12 14 13 15 19 18 17 12 10 13 13 12 15 19 19 12 18 21 18 16 11 16 17 16 17 15 14 13 13 13 16 13 13 14 17 13 11 14 8 12 15 16 18 16 13 13 13 11 11 12 15 18 20
30 25 15 10 8 9 10 8 6 7 6 6 8 12 16 17 9 10 11 11 12 6 7 6 8 7 10 12 9 9 8 4 10 9 13 12 13 13 15 16 20 16 14 12 12 10 18 11 11 22 11 16 20 20 18 16 13 16 16 15 17 17 12 15 10 14 14 11 15 14 12 9 12 7 4 4 8 12 13 13 13 12 11 11 11 14 16 18
22 9 9 7 5 4 7 6 7 7 7 7 11 14 19 12 10 8 7 8 9 12 11 9 10 11 10 10 10 10 11 11 9 10 11 14 13 14 15 14 17 21 14 14 7 11 10 14 10 19 21 17 20 19 20 17 14 14 16 20 18 13 16 15 15 12 12 13 16 9 9 12 11 12 12 14 12 12 12 13 13 13 12 12 12 14 17 17
11 12 7 4 6 4 5 7 6 7 7 9 13 17 13 12 14 7 4 8 7 11 10 11 11 11 11 12 11 14 11 11 9 9 10 13 13 16 16 15 17 21 21 12 10 9 8 9 11 12 23 20 16 18 19 21 14 9 17 17 16 18 15 15 17 12 13 15 12 12 13 12 12 12 12 19 20 19 16 15 15 13 11 14 14 15 16 17
13 10 10 9 2 3 5 7 8 6 7 10 17 18 9 15 11 15 4 4 3 9 9 11 7 11 10 10 11 13 13 11 12 11 11 13 9 14 16 14 20 18 20 18 11 10 11 9 12 17 17 17 15 17 19 20 21 17 13 14 17 15 16 13 12 17 18 17 12 14 15 14 13 10 9 11 12 15 16 15 16 13 13 15 14 16 17 18
12 10 7 5 5 3 5 8 7 6 9 12 14 14 14 15 11 13 15 12 7 6 11 11 9 9 11 8 7 10 10 12 10 10 10 8 9 12 15 12 16 21 20 21 14 7 10 10 7 16 16 17 18 16 17 17 21 24 15 13 17 13 16 17 14 10 10 15 14 16 17 14 12 12 10 11 12 11 12 13 14 11 11 13 13 14 15 16
9 5 3 8 5 4 6 7 6 7 10 16 13 13 7 13 17 17 14 14 14 12 11 11 12 11 11 12 10 8 11 13 5 7 9 7 9 11 13 16 12 20 20 21 16 12 8 9 10 11 18 16 16 16 19 18 19 19 20 15 14 15 10 12 16 16 14 14 13 13 15 12 10 12 15 16 14 12 13 14 11 10 9 12 13 13 13 15
7 5 1 6 4 3 3 5 8 10 12 12 15 15 14 13 10 12 18 19 15 12 13 13 13 13 11 11 14 11 7 9 9 9 8 7 9 6 9 12 13 16 19 20 19 14 10 10 12 7 13 15 16 17 21 22 19 18 17 17 18 14 15 19 21 17 18 14 12 13 14 9 10 10 10 14 15 15 14 15 14 15 16 12 10 12 13 14
7 7 2 4 3 4 6 8 9 9 10 13 13 11 12 8 13 14 13 13 19 13 13 15 14 13 12 14 11 10 12 11 11 11 9 10 10 10 7 4 9 13 14 14 15 15 11 6 11 12 10 12 15 16 19 22 23 20 17 18 20 16 14 15 17 16 17 20 18 17 16 13 12 5 8 10 12 14 15 15 14 13 13 11 6 8 12 14
6 9 12 16 5 7 6 9 10 11 13 11 11 15 13 11 10 10 14 15 14 13 13 14 16 16 15 13 13 14 12 10 12 12 9 12 10 10 5 5 4 12 13 12 17 15 12 10 10 12 9 11 14 15 17 20 22 22 21 19 20 21 20 17 17 12 17 16 15 17 18 14 8 6 6 8 9 7 6 9 10 12 11 11 9 10 10 11
7 10 10 3 5 6 8 9 9 11 11 13 16 16 12 13 13 14 14 13 13 12 16 13 13 17 14 16 13 13 12 11 12 14 12 10 10 10 7 7 7 8 11 9 13 13 12 11 11 11 10 9 11 13 16 15 15 15 17 20 21 21 25 22 19 14 18 23 20 18 21 14 12 5 3 6 6 8 10 11 12 12 10 10 9 8 8 10
9 9 10 7 6 8 9 8 10 10 11 12 11 12 12 12 12 15 12 13 13 14 11 14 14 12 15 13 15 15 15 15 7 11 14 12 13 11 8 10 9 11 9 12 15 8 14 11 13 13 14 15 15 16 16 16 17 14 17 21 24 26 26 21 20 17 18 17 23 21 18 15 17 15 18 17 13 12 12 11 10 13 13 11 10 6 7 8
7 7 5 6 7 8 9 10 12 11 10 11 12 12 12 13 11 13 17 18 15 13 14 11 12 14 14 16 17 15 15 14 14 6 7 9 7 7 6 6 7 7 7 9 6 4 8 12 15 16 15 14 13 11 11 12 12 17 19 23 24 24 26 22 16 18 22 14 18 17 18 16 21 20 15 18 14 17 20 15 12 9 9 9 7 6 6 7
6 6 6 6 6 8 10 10 9 8 9 8 9 8 12 11 10 11 11 11 15 16 12 13 12 13 14 15 15 15 15 14 15 15 13 9 9 5 8 5 4 3 4 6 8 7 7 11 14 17 21 19 16 15 14 16 17 17 21 22 23 24 24 27 23 22 16 16 20 13 12 22 22 20 18 17 14 13 16 17 16 13 13 12 9 8 8 8
6 7 6 6 6 7 8 7 8 9 12 11 11 11 12 12 11 10 7 12 12 14 14 12 17 16 14 15 14 13 13 15 14 15 15 14 11 11 11 10 11 7 6 10 8 9 10 12 14 17 20 22 22 20 19 18 16 16 18 19 24 24 24 26 27 26 23 19 20 12 12 22 22 25 22 17 13 13 13 15 17 19 18 16 11 10 11 11
7 6 9 7 8 8 9 12 14 12 14 13 9 11 13 12 13 11 8 7 10 13 14 13 15 18 18 15 13 12 13 12 14 14 12 10 13 12 12 10 12 10 11 9 9 9 10 11 12 14 17 18 20 22 22 23 20 20 20 20 21 23 26 27 25 24 27 23 22 22 16 22 22 23 23 25 19 17 16 13 16 17 17 15 12 9 11 12
7 7 6 6 7 10 12 10 10 11 11 10 9 10 11 12 13 13 12 9 10 11 11 16 14 13 16 19 17 14 13 13 9 9 12 13 10 10 10 10 6 13 14 12 9 8 9 10 11 13 13 18 22 23 23 24 23 23 22 23 24 23 24 25 25 25 25 27 28 25 25 21 15 17 19 21 19 17 20 20 18 14 17 21 17 12 11 11
6 7 7 8 10 7 8 9 8 8 9 8 9 10 10 13 12 9 10 9 12 11 8 11 9 10 9 11 18 18 14 11 9 12 7 6 7 2 5 3 9 9 10 10 10 9 10 9 8 8 11 12 16 22 24 24 25 25 24 24 24 24 24 22 21 20 21 21 22 25 25 22 16 16 16 18 15 18 20 18 16 16 21 21 14 11 10 11
5 6 7 6 9 9 9 8 9 7 9 8 9 10 6 6 8 10 9 9 13 14 12 9 10 9 7 5 7 6 4 6 7 7 6 7 8 9 9 11 9 7 7 11 8 10 8 9 10 9 10 10 11 14 20 24 23 23 24 23 23 23 22 21 22 22 23 21 21 21 21 17 16 16 20 20 21 21 21 19 17 18 10 7 8 7 6 7
Wind_Direction
353 352 350 348 346 345 344 342 341 338 336 335 333 333 333 332 330 332 332 329 328 328 328 328 329 329 328 328 330 330 325 310 293 255 243 264 4 339 202 95 167 169 181 187 162 172 177 180 183 165 190 188 201 227 173 215 218 214 226 259 236 117 202 143 139 151 78 151 152 164 164 158 152 160 142 172 165 152 152 163 160 143 297 124 119 141 144 146
352 351 349 347 346 344 342 340 338 336 334 334 333 332 332 330 330 330 329 328 327 326 326 325 326 326 326 326 327 330 317 291 279 270 259 355 319 259 230 162 175 167 187 187 175 182 178 181 177 179 191 209 165 209 154 195 203 203 252 271 246 117 123 180 163 148 190 158 155 167 171 169 149 169 152 177 161 153 164 162 163 163 133 120 137 142 150 156
351 350 348 346 345 343 341 339 337 335 332 332 331 330 331 329 329 328 326 327 326 325 323 325 324 321 323 324 323 316 310 293 268 264 109 136 256 254 212 145 175 175 190 189 190 199 203 186 171 192 207 242 174 206 195 178 197 227 275 211 225 129 21 245 202 166 213 118 162 171 168 180 139 166 154 189 163 170 185 166 177 176 152 150 146 152 153 162
349 348 347 345 343 342 340 337 335 333 331 330 330 329 329 328 328 327 326 325 325 324 322 321 320 320 319 317 326 306 291 281 274 97 122 139 138 187 178 150 168 193 202 208 204 217 219 206 192 212 220 237 216 228 212 170 216 161 232 221 155 104 268 174 223 201 177 165 169 170 159 173 153 160 175 169 171 189 201 182 181 176 165 155 154 156 158 166
348 347 346 344 342 341 339 336 334 332 330 328 329 328 327 327 327 325 324 323 322 322 320 318 316 316 316 308 306 294 295 281 81 94 112 127 151 175 167 161 163 189 217 212 212 222 221 211 198 216 234 232 233 214 233 195 223 197 228 236 261 133 277 87 238 208 190 176 168 165 170 169 152 161 186 172 188 182 195 176 186 172 162 157 159 161 164 169
347 345 344 342 341 340 338 335 333 330 328 328 328 327 327 326 325 324 323 320 319 318 316 314 313 311 310 311 290 280 291 292 58 358 124 114 141 183 174 166 179 194 201 210 208 199 203 200 196 205 213 231 224 227 205 225 186 246 212 240 250 270 284 115 228 207 192 182 177 170 171 148 169 171 186 179 188 50 179 164 177 163 163 160 160 162 169 174
346 344 342 341 340 338 337 334 331 329 326 326 326 326 326 325 324 323 320 319 316 315 313 310 308 303 307 296 264 256 262 277 283 83 108 106 121 199 179 173 176 201 197 200 205 194 198 195 202 206 211 224 236 233 232 203 185 226 225 208 203 225 242 226 248 198 197 193 179 169 162 164 173 177 179 194 151 108 170 159 163 157 159 162 163 167 171 176
344 343 341 339 339 337 336 334 330 328 325 324 325 325 324 323 322 320 319 316 315 311 309 304 301 294 303 269 254 249 264 268 305 80 90 108 161 160 176 177 179 192 197 203 197 200 189 199 199 203 220 221 214 228 220 225 193 209 238 228 243 237 249 260 228 191 198 188 174 174 167 170 181 167 168 190 145 137 161 149 155 157 160 166 169 171 174 177
344 342 341 339 338 336 335 333 330 327 325 323 324 324 322 321 320 319 317 314 311 308 303 296 279 268 262 268 271 290 276 303 80 110 140 155 125 136 156 163 181 189 204 207 205 205 200 207 207 206 210 220 226 237 217 228 203 212 222 229 239 246 261 244 212 196 189 179 178 170 172 171 182 140 184 173 147 132 143 153 157 160 165 171 175 174 175 180
343 341 339 338 337 336 334 332 329 326 324 324 324 322 322 320 319 317 315 312 308 303 293 277 258 233 237 239 252 269 355 92 146 167 169 175 162 177 225 274 179 200 208 210 209 211 209 205 210 203 241 263 243 237 233 211 286 180 214 233 272 312 295 220 203 183 176 185 170 177 177 169 161 180 163 177 149 145 157 158 160 163 170 174 176 177 176 181
342 341 339 337 336 336 333 332 329 326 324 324 323 322 320 320 318 316 314 310 303 296 285 249 207 208 211 229 258 272 74 251 148 174 179 190 206 254 286 205 198 214 215 214 215 214 215 220 207 215 233 246 224 233 235 220 234 236 256 240 242 246 241 183 192 167 169 175 180 185 166 158 167 205 195 161 159 159 160 162 165 170 171 175 179 179 177 184
341 340 339 338 336 335 334 331 329 326 325 324 322 320 319 318 316 315 313 309 296 280 253 213 194 214 249 246 246 250 103 303 228 221 201 205 238 266 282 263 226 226 217 220 215 212 216 216 213 208 208 190 242 241 220 227 225 239 235 244 209 217 190 181 178 166 180 162 189 165 149 179 183 199 192 150 160 170 165 166 169 173 172 174 180 180 182 188
341 340 339 338 335 334 334 332 329 327 325 323 321 320 318 316 314 315 312 301 296 241 215 185 188 233 250 253 242 257 263 263 247 231 244 238 257 255 251 246 226 229 231 234 218 211 214 212 210 217 230 229 234 220 56 213 223 240 229 249 219 228 217 179 167 177 190 156 181 156 202 205 202 195 169 154 165 170 172 172 175 175 174 175 179 184 184 187
341 339 339 337 335 334 333 332 330 326 324 323 320 318 316 313 313 311 300 271 249 210 176 169 219 214 231 259 292 167 245 274 269 250 248 243 241 237 218 213 210 211 205 226 227 199 207 216 216 230 234 234 233 115 224 200 216 226 225 226 238 219 204 168 178 171 193 147 180 191 232 187 177 181 161 167 167 175 181 178 180 179 177 178 181 184 187 189
340 339 338 337 334 333 333 332 330 326 324 322 319 317 314 310 311 306 283 236 185 171 162 187 235 216 231 260 250 103 88 244 232 223 209 197 204 197 199 185 193 198 180 194 196 194 203 207 217 223 223 221 256 242 224 214 201 222 209 211 217 237 135 160 180 179 184 153 187 200 234 232 141 167 169 168 174 181 187 185 183 183 182 181 182 185 188 188
340 338 338 336 333 332 332 331 329 327 324 321 318 314 311 308 303 318 6 122 147 162 173 209 197 235 297 287 145 131 195 219 198 186 162 221 198 221 171 182 177 193 187 170 201 183 196 197 209 212 220 203 225 225 215 218 210 210 222 215 208 204 163 185 186 189 188 159 184 201 222 215 162 157 168 174 177 185 193 190 188 187 187 183 185 187 185 185
340 338 337 335 332 332 332 330 329 328 323 319 318 310 314 297 272 229 141 147 156 179 229 268 170 217 268 83 51 225 204 182 107 163 178 217 255 227 171 165 181 181 188 175 182 195 179 203 198 223 232 225 207 216 221 215 209 208 206 236 225 204 173 214 162 191 191 173 183 198 228 190 86 144 183 184 180 188 199 195 192 191 187 186 187 190 186 186
339 338 336 334 331 330 330 329 328 326 324 319 315 305 314 311 308 148 153 183 144 196 232 282 268 243 236 227 247 217 143 158 182 101 231 242 243 199 187 183 167 176 172 188 181 195 176 198 192 213 199 216 206 211 218 209 210 202 198 217 217 241 224 187 168 176 196 189 200 194 216 221 139 148 206 186 191 195 201 200 195 193 190 186 188 192 190 189
339 337 335 333 329 328 329 329 326 324 322 317 300 277 282 265 239 250 227 176 180 174 215 165 213 218 4 128 106 112 180 123 256 275 267 240 205 203 191 203 180 167 185 197 171 200 168 206 198 213 207 202 207 210 213 221 208 219 205 209 224 207 200 218 190 171 193 188 208 202 213 221 171 179 192 180 189 202 204 206 202 197 194 189 190 193 193 192
338 336 333 330 327 325 328 326 324 321 323 318 320 267 213 215 193 183 192 209 236 256 287 276 208 262 285 270 261 261 271 236 254 246 237 197 179 187 191 196 181 198 194 201 162 202 168 204 200 208 207 203 209 213 217 221 229 221 223 219 220 223 210 194 202 168 193 199 203 205 225 223 225 193 178 183 179 197 209 207 207 204 199 196 194 193 195 195
336 333 332 330 326 323 324 325 322 319 318 297 296 292 320 353 302 322 336 272 245 247 256 255 242 252 255 274 254 210 266 246 225 232 223 166 203 182 186 191 189 199 201 201 184 183 199 212 213 209 211 209 208 212 220 228 233 229 224 218 224 233 237 171 175 170 208 217 198 210 223 230 226 216 193 188 188 195 201 209 209 209 204 201 199 195 194 195
335 335 333 329 326 323 323 322 320 316 308 269 284 327 67 38 7 335 302 293 281 255 244 248 251 256 253 252 256 268 261 253 227 221 214 186 186 201 165 199 189 205 186 197 197 180 207 217 211 209 210 219 215 212 217 223 226 225 235 221 228 217 233 146 193 183 201 228 218 192 223 233 232 232 212 199 201 202 202 207 210 207 208 205 203 201 195 194
335 332 331 329 328 323 323 320 317 317 292 302 319 288 54 39 349 332 276 285 276 234 238 241 233 242 254 250 242 209 224 224 236 203 192 189 181 217 168 200 196 205 191 197 201 190 207 220 213 205 211 218 220 217 214 219 226 227 225 232 224 227 210 186 199 191 186 223 220 205 228 231 231 230 229 210 210 207 205 208 212 212 209 205 204 201 198 198
333 332 328 331 327 323 322 321 312 280 278 323 285 344 61 6 342 331 283 269 296 284 219 228 234 236 245 262 174 189 208 224 219 212 173 187 198 199 202 199 202 203 202 194 208 211 214 211 205 209 210 211 214 208 215 217 222 226 236 231 228 227 208 217 184 200 196 216 242 194 228 240 231 225 218 225 226 213 206 208 211 212 212 209 205 206 203 200
329 329 331 329 329 325 317 319 287 326 318 269 200 116 232 333 331 335 289 267 242 247 181 234 214 239 204 103 143 195 206 230 219 220 173 193 191 187 211 196 215 207 208 197 208 222 220 203 193 206 208 209 216 217 216 219 224 224 225 236 240 236 219 200 210 191 209 221 206 217 235 240 236 237 232 205 225 222 204 204 206 205 208 206 209 206 205 207
325 327 331 328 329 332 309 289 41 333 315 348 100 137 103 314 320 314 276 269 279 279 142 197 173 151 167 184 175 217 152 221 191 212 181 198 199 205 178 210 206 209 206 199 207 218 219 176 191 207 202 209 215 223 214 216 230 228 216 221 235 241 236 220 217 199 216 227 208 207 236 242 236 242 222 202 213 212 205 205 205 202 203 205 208 207 207 207
324 324 329 326 330 341 330 8 354 313 268 126 138 187 301 302 318 276 263 232 247 151 186 61 210 123 223 146 187 161 216 131 148 172 192 185 206 195 217 201 186 241 206 200 194 211 206 197 186 204 207 210 211 216 213 211 223 230 227 215 220 231 235 230 210 216 233 234 223 214 216 250 252 238 209 208 230 214 215 207 206 205 203 205 206 208 207 208
323 321 323 326 322 327 283 300 314 306 354 39 4 325 308 315 282 254 266 276 255 128 167 154 2 99 252 162 189 225 21 116 205 167 200 178 207 187 227 208 201 206 203 188 212 175 190 197 199 191 203 209 214 212 207 210 221 229 232 240 219 222 226 232 225 217 227 228 228 221 217 240 248 246 201 190 205 212 213 214 210 212 208 206 206 208 207 207
319 318 319 323 318 291 268 249 269 270 21 351 310 307 306 293 248 251 261 273 119 212 36 187 140 185 184 173 205 233 246 195 283 132 180 174 210 210 203 222 205 212 197 208 222 173 190 207 200 202 196 212 213 208 213 207 216 222 281 247 228 218 225 230 233 232 226 225 227 220 211 230 238 234 223 210 226 218 219 223 219 211 210 208 205 207 207 205
317 315 316 323 314 271 199 232 239 252 301 300 296 295 295 258 212 219 208 237 131 205 173 93 211 163 174 187 197 207 222 189 191 138 170 186 190 222 241 230 214 212 204 207 235 222 186 206 209 206 208 208 204 212 211 213 219 223 219 224 221 222 225 226 238 241 240 233 226 225 212 214 246 229 215 208 213 221 232 236 228 218 213 209 207 203 201 202
315 311 310 317 295 306 305 261 242 236 236 283 285 276 269 229 236 223 226 179 265 140 163 165 165 166 184 210 207 168 222 209 175 167 170 186 183 202 198 204 222 215 212 209 214 226 190 183 201 205 209 205 207 205 209 216 213 213 217 221 220 220 219 227 227 228 245 238 221 231 243 207 238 234 245 213 213 235 243 239 236 224 221 214 210 205 202 198
313 310 305 307 270 255 238 292 78 118 172 301 302 277 226 219 222 230 214 87 257 145 201 190 179 195 196 200 259 186 203 184 191 190 183 183 183 192 194 208 182 200 209 203 207 208 217 202 198 201 202 207 196 208 192 202 209 215 219 219 218 195 196 217 212 216 224 236 221 222 231 230 224 249 260 234 199 234 245 248 245 228 212 216 207 205 200 197
313 308 305 287 253 215 231 255 288 279 298 299 289 240 217 228 234 206 229 167 219 159 145 254 170 194 195 217 218 208 194 258 172 205 198 188 203 196 200 212 189 212 207 191 209 192 215 210 203 193 188 203 203 200 187 196 202 210 211 210 211 215 207 221 212 227 235 217 238 240 225 240 247 230 228 252 238 227 236 232 237 249 258 215 207 200 198 196
311 309 302 278 251 235 247 242 256 269 273 262 229 207 224 230 234 172 212 207 163 99 124 182 162 208 216 223 209 167 218 209 187 199 198 190 205 200 200 212 207 203 237 191 212 193 198 197 210 199 201 185 207 209 202 199 193 207 210 211 217 224 217 214 220 217 222 234 213 209 226 225 233 225 227 225 235 242 240 242 245 245 234 239 212 197 196 195
311 298 277 273 241 235 233 227 236 233 234 220 208 214 214 227 230 216 214 209 228 222 196 142 231 224 221 229 232 225 241 219 190 210 200 206 198 211 198 201 206 212 207 227 197 213 217 229 199 203 208 179 204 206 213 199 199 204 213 220 223 220 224 239 218 228 228 223 236 207 223 223 233 239 197 240 245 236 235 234 236 230 218 212 213 201 198 195
302 307 299 259 244 195 194 198 204 211 222 220 215 216 224 216 219 212 235 225 220 228 224 214 233 239 241 239 215 222 168 257 176 224 211 217 209 211 203 200 203 200 207 221 165 217 206 228 192 188 208 200 200 198 207 204 206 186 203 215 219 220 230 234 241 253 275 238 235 203 217 221 246 253 236 235 227 227 223 233 234 233 217 202 205 203 201 199
317 313 300 270 229 176 173 181 183 200 223 232 224 230 226 231 240 244 217 212 239 223 221 230 210 221 225 231 234 205 194 210 206 211 223 204 220 214 205 204 203 196 218 217 207 220 239 215 193 191 198 207 200 199 206 210 227 191 208 213 216 227 238 233 233 210 227 235 232 224 216 229 220 237 224 231 238 242 239 238 240 240 216 204 207 200 199 200
314 304 287 262 192 131 171 174 183 201 221 226 233 243 237 242 219 244 224 243 171 225 237 218 228 213 220 229 219 206 180 206 185 202 247 185 237 192 209 208 192 208 205 213 246 176 218 243 195 195 203 193 193 200 207 216 215 228 214 189 209 191 214 230 238 228 220 222 240 230 232 241 230 227 213 221 225 230 237 240 243 230 213 213 211 202 199 199
292 291 278 132 114 139 152 171 199 201 214 226 233 238 234 253 250 227 237 251 277 276 230 228 249 187 240 226 229 182 181 209 174 204 219 163 230 167 211 202 192 200 205 208 215 220 186 241 215 181 201 189 198 204 210 199 206 224 238 215 211 229 219 213 213 247 243 235 224 237 232 232 218 244 232 219 210 231 225 228 225 204 209 212 209 205 199 195
319 307 272 106 115 124 137 189 229 221 222 227 227 238 241 238 233 243 244 241 238 234 237 254 230 254 216 238 240 203 195 230 184 210 212 149 221 128 231 193 208 188 205 206 220 219 213 195 256 172 196 194 203 198 212 202 194 198 218 219 214 219 221 232 223 218 231 240 242 237 227 225 219 231 230 236 242 237 248 249 248 250 241 227 214 201 194 193
305 264 188 103 115 147 210 240 240 226 229 241 245 252 239 241 239 230 233 236 246 243 257 233 237 230 237 224 228 236 245 218 223 236 220 200 216 180 217 210 203 198 197 203 216 207 224 192 227 198 184 207 211 198 214 214 208 205 206 208 221 204 204 217 225 218 224 230 234 241 251 245 218 192 208 229 234 238 233 243 246 244 246 242 226 202 193 190
289 275 94 84 167 263 280 259 237 231 245 237 235 232 242 259 263 258 249 233 235 244 224 256 252 256 236 234 246 216 230 235 232 235 216 245 177 245 95 257 209 215 198 205 209 201 223 202 218 226 197 214 217 207 203 220 221 221 203 212 214 221 215 221 222 219 225 227 234 239 245 233 242 151 174 221 230 225 232 235 237 238 245 247 236 219 190 192
283 281 305 306 255 234 253 257 257 247 237 245 260 255 261 258 255 249 244 235 239 223 238 224 230 233 238 248 225 237 233 240 234 232 235 220 240 231 112 185 206 217 210 210 207 208 192 230 205 240 237 217 210 221 219 208 219 224 222 217 207 217 217 226 227 219 238 223 225 235 235 236 202 78 234 222 208 233 266 273 264 253 248 249 221 214 189 186
303 291 294 177 183 213 234 248 254 244 242 242 244 254 249 256 246 239 239 238 235 220 225 230 223 227 241 222 237 236 218 241 225 242 240 242 245 221 223 209 204 208 195 199 217 182 206 194 224 208 223 229 225 207 219 199 210 225 223 218 220 217 219 225 233 221 234 230 225 230 233 219 211 171 145 230 230 238 254 249 241 246 251 242 226 197 188 189
293 267 242 247 211 209 230 250 268 273 276 265 266 264 255 244 240 251 251 240 234 243 235 227 233 221 223 235 234 232 232 235 249 222 239 228 234 207 203 230 205 250 194 8 347 174 211 186 197 219 209 209 207 206 203 196 204 216 228 227 223 224 218 215 221 216 233 221 227 233 231 231 233 215 219 226 235 265 263 269 248 239 244 245 239 187 181 186
302 306 302 247 197 213 244 256 270 269 273 270 265 268 261 258 246 234 235 246 251 249 249 253 226 226 227 216 227 226 228 222 230 230 206 218 215 195 194 175 217 231 39 334 328 204 222 222 206 216 223 220 219 219 217 220 205 215 217 223 227 224 226 228 227 226 230 220 224 241 246 236 225 217 218 230 230 233 245 256 275 272 245 241 217 188 178 186
297 282 287 311 309 274 251 236 240 241 260 291 277 280 263 260 265 255 219 244 223 240 246 237 236 222 216 222 219 223 224 229 222 238 237 245 226 188 145 215 224 229 346 271 217 223 219 229 210 214 227 236 232 225 227 220 229 218 218 218 223 227 222 227 227 227 232 232 230 226 224 241 240 232 217 215 210 223 242 249 257 270 278 271 245 189 180 186
261 269 315 337 293 296 310 318 355 335 315 293 275 274 276 273 268 261 241 238 253 230 237 223 236 234 227 220 222 231 222 229 230 228 228 234 252 253 256 223 233 176 202 226 198 230 227 230 216 218 226 231 236 239 229 232 230 238 233 225 219 219 229 229 231 233 227 233 240 214 193 231 235 236 242 228 220 234 234 242 241 249 256 254 232 196 194 196
274 284 291 316 288 290 305 321 313 306 297 292 282 273 269 269 269 263 272 274 232 238 225 242 225 225 231 235 230 233 223 227 220 228 234 230 223 239 250 249 239 236 217 236 208 215 228 233 234 236 246 241 239 238 239 240 237 231 235 237 234 225 222 228 234 234 235 239 240 242 218 220 227 229 229 243 245 252 250 238 246 250 261 273 254 223 212 198
289 301 306 330 300 289 289 288 286 288 278 275 276 264 267 265 267 263 250 248 246 244 228 239 249 235 225 231 235 237 229 235 255 229 192 225 228 227 246 252 261 212 219 224 207 200 229 216 214 232 241 239 240 243 241 241 239 238 232 233 237 236 232 228 229 231 235 238 240 239 244 238 227 232 234 239 239 245 249 246 246 241 249 255 255 243 231 210
290 291 295 290 291 278 268 255 250 264 272 265 258 261 257 260 265 328 313 282 271 279 272 255 254 300 292 253 230 232 237 238 238 259 264 248 250 234 253 235 231 243 209 218 193 199 214 224 201 226 238 241 230 234 237 240 240 238 235 230 230 234 235 231 229 225 227 229 232 237 238 238 231 227 235 239 231 241 247 244 239 240 242 246 249 251 244 223
258 269 261 261 265 271 280 274 270 262 251 252 259 273 273 284 336 333 305 281 258 257 279 323 335 313 281 262 241 246 306 302 300 308 310 300 287 277 268 271 280 292 267 221 198 212 221 226 214 216 232 240 247 231 231 233 239 239 231 228 227 230 237 239 240 235 230 228 227 227 236 237 233 230 234 234 231 234 238 240 241 241 240 248 260 270 277 259